Christmas Island, Christmas Island

5:55 PM +07 on August 24, 2017 (GMT +0700)
Christmas Island

Weather History for YPXM - May, 2013

Change the Weather History Date:

Thursday, May 2, 2013

  Actual Average Record
Temperature  
Mean Temperature 78 °F -  
Max Temperature 82 °F 79 °F 85 °F (2014)
Min Temperature 73 °F 73 °F 71 °F (2015)
Cooling Degree Days 12    
Growing Degree Days 28 (Base 50)    
Moisture  
Dew Point 74 °F    
Average Humidity 87    
Maximum Humidity 94    
Minimum Humidity 73    
Precipitation  
Precipitation 0.03 in - - ()
Sea Level Pressure  
Sea Level Pressure 29.84 in    
Wind  
Wind Speed 9 mph ()    
Max Wind Speed 13 mph    
Max Gust Speed -    
Visibility 5.7 miles    
Events Rain    
Averages and records for this station are not official NWS values.
T = Trace of Precipitation, MM = Missing Value Source: Averaged Metar Reports

Daily Weather History Graph

Daily Weather History Graph

Search for Another Location

Airport or City:

Trip Planner

Search our weather history database for the weather conditions in past years. The results will help you decide how hot, cold, wet, or windy it might be!

Date:

Astronomy

May. 02, 2013 Rise Set
Actual Time 6:02 AM +07 5:46 PM +07
Civil Twilight 5:40 AM +07 6:07 PM +07
Nautical Twilight 5:15 AM +07 6:33 PM +07
Astronomical Twilight 4:50 AM +07 6:58 PM +07
Moon No Moon Rise 12:03 PM +07 (5/2)
Length of Visible Light 12h 27m
Length of Day
11h 43m
Waning Gibbous, 53% of the Moon is Illuminated
May 2
Waning Gibbous
May 2
Last Quarter
May 10
New
May 18
First Quarter
May 25
Full

Hourly Weather History & Observations

Time (+07) Temp. Heat Index Dew Point Humidity Pressure Visibility Wind Dir Wind Speed Gust Speed Precip Events Conditions
12:00 AM 79 °F - 75 °F 84% 29.85 in - ESE 11.5 mph - -  
12:00 AM 78.8 °F - 75.2 °F 89% 29.89 in 6.2 mi ESE 11.5 mph - N/A   Mostly Cloudy
1:00 AM 79 °F - 75 °F 83% 29.83 in - SE 12.7 mph - -  
1:00 AM 78.8 °F - 75.2 °F 89% 29.86 in 6.2 mi SE 12.7 mph - N/A   Mostly Cloudy
2:00 AM 78.8 °F - 75.2 °F 89% 29.86 in 6.2 mi ESE 11.5 mph - N/A   Scattered Clouds
3:00 AM 78 °F - 74 °F 86% 29.82 in - ESE 11.5 mph - -   Overcast
3:00 AM 78.8 °F - 75.2 °F 89% 29.86 in 6.2 mi ESE 11.5 mph - N/A   Mostly Cloudy
4:00 AM 78 °F - 74 °F 86% 29.81 in - ESE 11.5 mph - -  
4:00 AM 78.8 °F - 75.2 °F 89% 29.86 in 6.2 mi ESE 11.5 mph - N/A   Scattered Clouds
5:00 AM 78.8 °F - 73.4 °F 83% 29.86 in 6.2 mi ESE 10.4 mph - N/A   Scattered Clouds
6:00 AM 78 °F - 74 °F 83% 29.83 in - ESE 9.2 mph - -  
6:00 AM 77.0 °F - 73.4 °F 89% 29.86 in 6.2 mi ESE 9.2 mph - N/A   Scattered Clouds
7:00 AM 79 °F - 75 °F 83% 29.84 in - ESE 9.2 mph - -  
7:00 AM 78.8 °F - 75.2 °F 89% 29.89 in 6.2 mi ESE 9.2 mph - N/A   Scattered Clouds
8:00 AM 77.0 °F - 73.4 °F 89% 29.89 in 6.2 mi SSE 9.2 mph - N/A   Mostly Cloudy
9:00 AM 73 °F - 71 °F 90% 29.88 in - SSW 6.9 mph - -   Overcast
9:00 AM 73.4 °F - 71.6 °F 94% 29.92 in 6.2 mi SSW 6.9 mph - N/A Rain Rain
9:04 AM 73.4 °F - 71.6 °F 94% 29.92 in 6.2 mi SSW 5.8 mph - N/A Rain Light Rain
10:00 AM 74 °F - 70 °F 82% 29.87 in - SSW 5.8 mph - -  
10:00 AM 73.4 °F - 69.8 °F 88% 29.92 in 6.2 mi SSW 5.8 mph - N/A   Overcast
11:00 AM 75.2 °F - 69.8 °F 83% 29.89 in 6.2 mi ENE 10.4 mph - N/A Rain Light Rain
12:00 PM 80 °F - 73 °F 73% 29.81 in - SSE 8.1 mph - -  
12:00 PM 80.6 °F 85.4 °F 73.4 °F 79% 29.86 in 6.2 mi SSE 8.1 mph - N/A   Mostly Cloudy
1:00 PM 80 °F - 75 °F 81% 29.79 in - ESE 8.1 mph - -  
1:00 PM 80.6 °F 86.2 °F 75.2 °F 84% 29.83 in 6.2 mi ESE 8.1 mph - N/A   Mostly Cloudy
2:00 PM 75.2 °F - 73.4 °F 94% 29.80 in 6.2 mi South 5.8 mph - N/A Rain Light Rain Showers
3:00 PM 78 °F - 75 °F 89% 29.76 in - SE 6.9 mph - -   Overcast
3:00 PM 78.8 °F - 75.2 °F 89% 29.80 in 6.2 mi SE 6.9 mph - N/A   Overcast
4:00 PM 77.0 °F - 73.4 °F 89% 29.80 in 6.2 mi South 5.8 mph - N/A   Overcast
5:00 PM 77.0 °F - 73.4 °F 89% 29.80 in 6.2 mi ESE 5.8 mph - N/A   Mostly Cloudy
6:00 PM 78 °F - 74 °F 84% 29.78 in - East 9.2 mph - -   Overcast
6:00 PM 78.8 °F - 73.4 °F 83% 29.83 in 6.2 mi East 9.2 mph - N/A   Mostly Cloudy
7:00 PM 79 °F - 75 °F 83% 29.79 in - East 8.1 mph - -  
7:00 PM 78.8 °F - 75.2 °F 89% 29.83 in 6.2 mi East 8.1 mph - N/A Rain Light Rain
8:00 PM 78.8 °F - 73.4 °F 83% 29.83 in 3.7 mi East 10.4 mph - N/A   Scattered Clouds
8:33 PM 78.8 °F - 75.2 °F 89% 29.83 in 6.2 mi East 11.5 mph - N/A   Mostly Cloudy
9:00 PM 79 °F - 75 °F 85% 29.81 in 5 mi East 12.7 mph - -  
9:00 PM 78.8 °F - 75.2 °F 89% 29.86 in 5.0 mi East 12.7 mph - N/A   Scattered Clouds
9:54 PM 78.8 °F - 75.2 °F 89% 29.86 in 3.7 mi East 12.7 mph - N/A   Mostly Cloudy
10:00 PM 79 °F - 75 °F 84% 29.81 in - East 12.7 mph - -  
10:00 PM 78.8 °F - 75.2 °F 89% 29.86 in 3.1 mi East 12.7 mph - N/A   Mostly Cloudy
11:00 PM 78.8 °F - 75.2 °F 89% 29.86 in 1.9 mi East 12.7 mph - N/A   Mostly Cloudy